This demonstration page uses our WeatherBlox Daily Observations layout. Learn more.

39.29038, -76.61219

Hourly Observations for November 9, 2019

Temp ( °F °C ) Dew Point ( °F °C ) Humidity (%) Winds ( mph kmh ) Pressure ( in mb ) Visibility ( mi km ) Precip ( " mm )
12:54 am 00:54 undefined 35 1.7 19 -7.2 52 52 undefined N/A 30.36 1028 N/A 0 0
1:54 am 01:54 undefined 35 1.7 17 -8.3 48 48 undefined N/A 30.33 1027 N/A 0 0
2:54 am 02:54 undefined 34 1.1 17 -8.3 50 50 undefined N/A 30.33 1027 N/A 0 0
3:54 am 03:54 undefined 34 1.1 17 -8.3 50 50 undefined N/A 30.33 1027 N/A 0 0
4:54 am 04:54 undefined 33 0.6 18 -7.8 54 54 undefined N/A 30.33 1027 N/A 0 0
5:54 am 05:54 undefined 32 0 16 -8.9 52 52 undefined N/A 30.36 1028 N/A 0 0
6:54 am 06:54 undefined 32 0 16 -8.9 52 52 undefined N/A 30.36 1028 N/A 0 0
7:54 am 07:54 undefined 32 0 19 -7.2 59 59 undefined N/A 30.36 1028 N/A 0 0
8:54 am 08:54 undefined 35 1.7 20 -6.7 54 54 undefined N/A 30.36 1028 N/A 0 0
9:54 am 09:54 undefined 39 3.9 19 -7.2 45 45 undefined N/A 30.36 1028 N/A 0 0
10:54 am 10:54 undefined 39 3.9 22 -5.6 50 50 undefined N/A 30.33 1027 N/A 0 0
11:54 am 11:54 undefined 40 4.4 21 -6.1 47 47 undefined N/A 30.3 1026 N/A 0 0
12:54 pm 12:54 undefined 42 5.6 20 -6.7 41 41 undefined N/A 30.27 1025 N/A 0 0
1:54 pm 13:54 undefined 41 5 20 -6.7 43 43 undefined N/A 30.24 1024 N/A 0 0
2:54 pm 14:54 undefined 41 5 21 -6.1 45 45 undefined N/A 30.21 1023 N/A 0 0
3:54 pm 15:54 undefined 42 5.6 21 -6.1 43 43 undefined N/A 30.21 1023 N/A 0 0
4:54 pm 16:54 undefined 41 5 21 -6.1 45 45 undefined N/A 30.18 1022 N/A 0 0
5:54 pm 17:54 undefined 40 4.4 22 -5.6 49 49 undefined N/A 30.18 1022 N/A 0 0
6:54 pm 18:54 undefined 40 4.4 24 -4.4 53 53 undefined N/A 30.18 1022 N/A 0 0
7:54 pm 19:54 undefined 39 3.9 25 -3.9 57 57 undefined N/A 30.18 1022 N/A 0 0
8:54 pm 20:54 undefined 38 3.3 25 -3.9 60 60 undefined N/A 30.18 1022 N/A 0 0
9:54 pm 21:54 undefined 38 3.3 25 -3.9 60 60 undefined N/A 30.18 1022 N/A 0 0
10:54 pm 22:54 undefined 38 3.3 25 -3.9 60 60 undefined N/A 30.15 1021 N/A 0 0
11:54 pm 23:54 undefined 39 3.9 26 -3.3 60 60 undefined N/A 30.15 1021 N/A 0 0

Powered by AerisWeather